Montpelier, VT

1:28 PM EST on November 21, 2019 (GMT -0500)
Knapp State

Weather History for KMPV - September, 2019

Change the Weather History Date:

Sunday, September 1, 2019

  Actual Average Record
Temperature  
Mean Temperature 58 °F 62 °F  
Max Temperature 72 °F 74 °F 89 °F (2010)
Min Temperature 45 °F 51 °F 33 °F (1967)
Degree Days  
Heating Degree Days 6 4  
Month to date heating degree days 6 4  
Since 1 July heating degree days 74 112  
Cooling Degree Days 0 1  
Month to date cooling degree days 0 1  
Year to date cooling degree days 211 245  
Growing Degree Days 8 (Base 50)    
Moisture  
Dew Point 48 °F    
Average Humidity 86    
Maximum Humidity 100    
Minimum Humidity 49    
Precipitation  
Precipitation 0.04 in 0.09 in 2.38 in (1952)
Month to date precipitation 0.04 0.09  
Year to date precipitation 34.84 24.89  
Sea Level Pressure  
Sea Level Pressure 30.39 in    
Wind  
Wind Speed 2 mph ()    
Max Wind Speed 15 mph    
Max Gust Speed 20 mph    
Visibility 5.4 miles    
Events Fog , Rain    
T = Trace of Precipitation, MM = Missing Value Source: Averaged Metar Reports

Daily Weather History Graph

Daily Weather History Graph

Search for Another Location

Airport or City:

Astronomy

Sep. 01, 2019 Rise Set
Actual Time 6:12 AM EDT 7:26 PM EDT
Civil Twilight 5:43 AM EDT 7:56 PM EDT
Nautical Twilight 5:07 AM EDT 8:32 PM EDT
Astronomical Twilight 4:29 AM EDT 9:10 PM EDT
Moon 8:43 AM EDT (9/1) 9:06 PM EDT (9/1)
Length of Visible Light 14h 13m
Length of Day
13h 13m
Waxing Crescent, 8% of the Moon is Illuminated
Sep 1
Waxing Crescent
Sep 5
First Quarter
Sep 14
Full
Sep 21
Last Quarter
Sep 28
New

Hourly Weather History & Observations

Time (EDT) Temp. Windchill Dew Point Humidity Pressure Visibility Wind Dir Wind Speed Gust Speed Precip Events Conditions
12:51 AM 46.9 °F - 45.0 °F 93% 30.40 in 10.0 mi Calm Calm - N/A   Clear
1:51 AM 46.0 °F - 45.0 °F 96% 30.41 in 10.0 mi Calm Calm - N/A   Clear
2:01 AM 46.0 °F - 44.1 °F 93% 30.39 in 2.5 mi Calm Calm - N/A   Partly Cloudy
2:04 AM 46.0 °F - 45.0 °F 96% 30.39 in 1.0 mi Calm Calm - N/A   Mist
2:11 AM 46.9 °F - 46.9 °F 100% 30.39 in 0.2 mi Calm Calm - N/A Fog Fog
2:32 AM 46.0 °F - 45.0 °F 96% 30.39 in 1.2 mi Calm Calm - N/A   Mostly Cloudy
2:34 AM 46.0 °F - 45.0 °F 96% 30.39 in 2.0 mi Calm Calm - N/A   Mostly Cloudy
2:41 AM 46.0 °F - 46.0 °F 100% 30.39 in 10.0 mi Calm Calm - N/A   Scattered Clouds
2:51 AM 46.0 °F - 46.0 °F 100% 30.40 in 10.0 mi Calm Calm - N/A   Partly Cloudy
3:20 AM 46.0 °F - 46.0 °F 100% 30.39 in 1.8 mi Calm Calm - N/A   Mostly Cloudy
3:22 AM 46.0 °F - 46.0 °F 100% 30.39 in 1.0 mi Calm Calm - N/A   Mist
3:51 AM 46.0 °F - 46.0 °F 100% 30.41 in 0.2 mi Calm Calm - N/A Fog Fog
4:22 AM 46.0 °F - 46.0 °F 100% 30.41 in 1.2 mi Calm Calm - N/A   Overcast
4:30 AM 46.0 °F - 46.0 °F 100% 30.40 in 2.0 mi Calm Calm - N/A   Overcast
4:38 AM 46.0 °F - 45.0 °F 96% 30.40 in 1.8 mi Calm Calm - N/A   Overcast
4:48 AM 46.4 °F - 44.6 °F 93% 30.40 in 3.0 mi Calm Calm - N/A   Overcast
4:49 AM 46.0 °F - 45.0 °F 96% 30.42 in 3.0 mi Calm Calm - N/A   Overcast
5:03 AM 46.0 °F - 45.0 °F 96% 30.41 in 1.8 mi Calm Calm - N/A   Mostly Cloudy
5:06 AM 46.0 °F - 46.0 °F 100% 30.40 in 1.0 mi Calm Calm - N/A   Mist
5:13 AM 46.0 °F 44.8 °F 46.0 °F 100% 30.41 in 0.5 mi NNE 3.5 mph - N/A Fog Fog
5:51 AM 46.0 °F - 46.0 °F 100% 30.43 in 0.2 mi Calm Calm - N/A Fog Fog
6:51 AM 46.0 °F - 46.0 °F 100% 30.45 in 0.2 mi Calm Calm - N/A Fog Fog
7:51 AM 48.0 °F - 48.0 °F 100% 30.45 in 0.2 mi Calm Calm - N/A Fog Fog
8:51 AM 48.9 °F - 48.9 °F 100% 30.46 in 0.2 mi Calm Calm - N/A Fog Fog
9:16 AM 50.0 °F - 50.0 °F 100% 30.44 in 1.2 mi Calm Calm - N/A   Overcast
9:18 AM 50.0 °F - 50.0 °F 100% 30.44 in 2.0 mi NNW 3.5 mph - N/A   Overcast
9:25 AM 50.0 °F - 48.9 °F 96% 30.44 in 6.0 mi Calm Calm - N/A   Overcast
9:49 AM 51.8 °F - 51.8 °F 100% 30.44 in 10.0 mi Calm Calm - N/A   Scattered Clouds
9:51 AM 52.0 °F - 52.0 °F 100% 30.46 in 10.0 mi Calm Calm - N/A   Partly Cloudy
10:51 AM 60.1 °F - 51.1 °F 72% 30.45 in 10.0 mi ENE 3.5 mph - N/A   Partly Cloudy
11:51 AM 66.0 °F - 48.9 °F 54% 30.42 in 10.0 mi SSE 10.4 mph - N/A   Clear
12:51 PM 69.1 °F - 51.1 °F 53% 30.40 in 10.0 mi South 9.2 mph 17.3 mph N/A   Clear
1:51 PM 69.1 °F - 51.1 °F 53% 30.37 in 10.0 mi SSW 5.8 mph - N/A   Scattered Clouds
2:51 PM 71.1 °F - 52.0 °F 51% 30.34 in 10.0 mi South 10.4 mph - N/A   Partly Cloudy
3:51 PM 71.1 °F - 51.1 °F 49% 30.33 in 10.0 mi SSE 12.7 mph - N/A   Clear
4:51 PM 68.0 °F - 52.0 °F 56% 30.32 in 10.0 mi South 10.4 mph - N/A   Partly Cloudy
5:51 PM 66.0 °F - 52.0 °F 60% 30.32 in 10.0 mi South 8.1 mph - N/A   Clear
6:51 PM 64.0 °F - 53.1 °F 67% 30.32 in 10.0 mi South 6.9 mph - N/A   Overcast
7:51 PM 64.0 °F - 52.0 °F 65% 30.29 in 10.0 mi South 9.2 mph - 0.00 in Rain Light Rain
8:51 PM 63.0 °F - 52.0 °F 67% 30.28 in 10.0 mi South 5.8 mph - 0.00 in   Overcast
9:51 PM 63.0 °F - 53.1 °F 70% 30.27 in 10.0 mi South 10.4 mph - N/A   Overcast
10:51 PM 63.0 °F - 53.1 °F 70% 30.25 in 10.0 mi South 9.2 mph - N/A   Overcast
11:51 PM 63.0 °F - 53.1 °F 70% 30.23 in 10.0 mi South 11.5 mph - N/A   Overcast